Query Options
Date and Time
prev <   Hour:    > next
Selected Variables
Available Variables
States


Actions

Manual Quality Control

You have selected 0 variables for manual quality control.

These variables will be removed from the active data set and placed in the quality control database.

Please enter a detailed reason for this action in the space provided below.


Results
mouse over column headers for more information or click to sort
City/LocationStateDate/TimeSourceTempWind
Chill
DewPtBPRHPrecipWind
Speed
Wind
Dir
Max
Wind
Maurice Township 2NJ2014-04-17 00:59NJDOT292927 90 0NE 
West Orange 2NJ2014-04-17 00:59NJDOT353517 47 1NNE 
CaldwellNJ2014-04-17 00:53ASOS36361630.6244 0N 
McGuire AFBNJ2014-04-17 00:58AWOS36322330.5660 5NE 
SomervilleNJ2014-04-17 00:53ASOS32322330.5869 0N 
TrentonNJ2014-04-17 00:53ASOS36301830.5548 7NE 
SussexNJ2014-04-17 00:53ASOS30301930.6064 0N 
Greenwich (Warren)NJ2014-04-17 00:59NJDOT353512 38 0WNW 
West Windsor TownshipNJ2014-04-17 00:59NJDOT363612 37 1N 
Cherry Hill TownshipNJ2014-04-17 00:59NJDOT343416 46 0NE 
Monroe TownshipNJ2014-04-17 00:59NJDOT363622 56 0N 
Piscataway 2NJ2014-04-17 00:59NJDOT393917 40 1W 
Mansfield Township (NJDOT)NJ2014-04-17 00:59NJDOT  20 62 1NE 
SummitNJ2014-04-17 00:59NJDOT363615 42 1N 
FarmingdaleNJ2014-04-17 01:35AWOS37331930.5848 6NE 
Toms RiverNJ2014-04-17 01:35AWOS28282530.5886 0N 
Hamilton Twp. (Mercer)NJ2014-04-17 01:00NJDOT373717 43 1NNE 
Coyle FieldNJ2014-04-17 01:10RAWS333325 73 2SSE4
PembertonNJ2014-04-17 01:00NJDOT272727 97 0N 
Wildwood (NJDOT)NJ2014-04-17 01:00NJDOT434321 41 1NNE 
High Pt. MonumentNJ2014-04-17 00:52SafetyNet28 18 650.00   
HawthorneNJ2014-04-17 00:52SafetyNet33  30.57   NE 
Blue Mountain LakesNJ2014-04-17 01:14RAWS303013 490.002E5
MillvilleNJ2014-04-17 00:54ASOS28282730.5693 0N 
WalpackNJ2014-04-17 00:53SafetyNet21      NNE 
Linden AirportNJ2014-04-17 01:35AWOS40361630.6237 6NNE 
HackettstownNJ2014-04-17 00:53SafetyNet32  30.60 0.00 NNE 
HopeNJ2014-04-17 00:53SafetyNet29    0.00 NNE 
Mullica Twp.NJ2014-04-17 00:53SafetyNet29  30.56   SSE 
Knowlton TownshipNJ2014-04-17 00:59NJDOT303020 66 0ENE 
Woodbridge TwpNJ2014-04-17 00:59NJDOT393913 34 1NE 
Berkeley HeightsNJ2014-04-17 01:00NJDOT313126 83 0S 
WanaqueNJ2014-04-17 01:00NJDOT333317 51 0NE 
Maurice Township 1NJ2014-04-17 01:00NJDOT303026 83 0N 
New BrunswickNJ2014-04-17 01:00Mesonet37341930.60480.003NE7
PequestNJ2014-04-17 01:00Mesonet25252330.62970.000WSW0
Wall Twp.NJ2014-04-17 01:00Mesonet393923 530.003NE11
Carneys PointNJ2014-04-17 01:00NJDOT383831 74 0NW 
Allamuchy Twp.NJ2014-04-17 01:01NJDOT323211 41 1NE 
Atlantic City AirportNJ2014-04-17 00:54ASOS31272630.5682 3NW 
ForsytheNJ2014-04-17 01:25RAWS383828 68 2NNW10
Woodbine (R)NJ2014-04-17 01:11RAWS313131 99 0 1
Jackson (R)NJ2014-04-17 01:10RAWS292927 91 1N1
TeetertownNJ2014-04-17 01:10RAWS3227    5ENE10
AndoverNJ2014-04-17 00:54ASOS31312230.5869 0N 
Cape May CourthouseNJ2014-04-17 01:00Mesonet343429 820.001NNW4
Egg HarborNJ2014-04-17 01:00Mesonet303028 930.000SW0
Piney HollowNJ2014-04-17 01:00Mesonet292927 950.000NW1
MansfieldNJ2014-04-17 01:00Mesonet37372230.49540.000NE3
Cream RidgeNJ2014-04-17 01:00Mesonet29292530.57880.001NNE3
HowellNJ2014-04-17 01:00Mesonet29292630.46920.000N2
Fort Dix INJ2014-04-17 01:00USFS343424 660.002NE4
Mount Olive TownshipNJ2014-04-17 01:00NJDOT333315 48 2ENE 
South HarrisonNJ2014-04-17 01:00Mesonet363625 620.000ENE0
High PointNJ2014-04-17 01:00Mesonet28281230.44520.001NNE7
Oswego LakeNJ2014-04-17 01:00Mesonet29292630.55930.000W1
HolmdelNJ2014-04-17 01:00Mesonet373718 450.001N9
HammontonNJ2014-04-17 01:00Mesonet303026 850.000S0
CharlotteburgNJ2014-04-17 01:00Mesonet30301730.56570.000NNE0
Lyndhurst (NJMC)NJ2014-04-17 01:00MERI37371730.64430.002NNE7
HaworthNJ2014-04-17 01:00Mesonet37371730.58440.000NNE9
WantageNJ2014-04-17 00:52SafetyNet28 21 750.00 NNW3
Springfield TownshipNJ2014-04-17 01:00NJDOT333320 58 0NNW 
Freehold TownshipNJ2014-04-17 00:59NJDOT383820 47 1E 
Basking RidgeNJ2014-04-17 01:00Mesonet32322230.55680.002N6
ButlerNJ2014-04-17 01:40APRSWXNET/CWOP32 24 73    
E. BrunswickNJ2014-04-17 01:40APRSWXNET/CWOP36 21 54    
West Cape MayNJ2014-04-17 01:00Mesonet414132 700.002ENE5
LafayetteNJ2014-04-17 00:59NJDOT292922 76 0SSW 
Logan TownshipNJ2014-04-17 00:59NJDOT383822 50 1N 
LakehurstNJ2014-04-17 01:00AWOS  2730.5792 0N 
Chester TownshipNJ2014-04-17 01:00NJDOT3434    1ENE 
Upper DeerfieldNJ2014-04-17 01:00Mesonet31312930.53910.002NE4
SewellNJ2014-04-17 01:00Mesonet323226 780.000NNW0
Dennis Twp.NJ2014-04-17 01:00Mesonet323232 990.000N3
Jersey City (LSC)NJ2014-04-17 01:00Mesonet38381630.60400.002E11
Cedar BridgeNJ2014-04-17 01:00USFS343421 590.002NNE4
MorristownNJ2014-04-17 01:43ASOS373418 44 5NNE 
BarnegatNJ2014-04-17 01:30HADS      12ENE17
Sea GirtNJ2014-04-17 01:00Mesonet41352830.56590.0011NE21
Atlantic City (HADS)NJ2014-04-17 01:15HADS      8ENE12
Mount HollyNJ2014-04-17 00:54ASOS34342730.5775 0N 
WoodbineNJ2014-04-17 01:00Mesonet30302830.52920.001N2
Gooseneck Pt. BridgeNJ2014-04-17 01:45Shrewsbury Network42  30.6140 19NE 
Cape May HarborNJ2014-04-17 01:15HADS      9ENE14
Toms RiverNJ2014-04-17 01:00RISE383826 62 1NNE5
Sea BrightNJ2014-04-17 01:15Shrewsbury Network4137 30.6450 7N 
Atlantic City (NJDOT)NJ2014-04-17 00:59NJDOT424228 58 2E 
Oceanic BridgeNJ2014-04-17 01:15Shrewsbury Network4135 30.6342 11ENE 
Nacote CreekNJ2014-04-17 01:30NERRS363230 80 4NNE 
Keansburg (HADS)NJ2014-04-17 01:30HADS     0.009ENE 
NewarkNJ2014-04-17 00:51ASOS38311730.5942 10N 
Ancora HospitalNJ2014-04-17 01:10RAWS3030    0 4
WayneNJ2014-04-17 00:52SafetyNet36        
SicklervilleNJ2014-04-17 01:00Mesonet30302430.56780.000NW7
HamiltonNJ2014-04-17 01:00Mesonet323224 720.000NW0
Atlantic City MarinaNJ2014-04-17 00:52SafetyNet4339    5NNE9
StewartsvilleNJ2014-04-17 00:52SafetyNet33 2630.59760.00 NNE 
PittstownNJ2014-04-17 01:00Mesonet33281530.50480.005ENE8
Point PleasantNJ2014-04-17 00:52SafetyNet4137 30.57  7N10
Cherry HillNJ2014-04-17 01:00Mesonet343428 790.000S1
West CreekNJ2014-04-17 00:52SafetyNet34        
OceanportNJ2014-04-17 01:00Mesonet403621 470.006ENE16
Berkeley Twp.NJ2014-04-17 01:00Mesonet28282530.54910.001NNE3
Seaside HeightsNJ2014-04-17 00:52SafetyNet4135 30.59  10E17
Harvey CedarsNJ2014-04-17 00:52SafetyNet4236    12NE20
GreenwichNJ2014-04-17 01:00Mesonet313129 910.000E2
HillsboroughNJ2014-04-17 00:52SafetyNet29  30.60 0.00 ESE 
Warren TownshipNJ2014-04-17 00:59NJDOT323221 62 1N 
NetcongNJ2014-04-17 00:52SafetyNet31        
Piscataway 1NJ2014-04-17 00:59NJDOT363614 38 0ESE 
Upper Freehold Twp.NJ2014-04-17 00:59NJDOT313123 70 0NE 
TeterboroNJ2014-04-17 00:51ASOS40361730.5939 6NNE 
North Beach HavenNJ2014-04-17 01:45APRSWXNET/CWOP42373230.5467 9NE15
Wildwood (A)NJ2014-04-17 01:35AWOS34312730.5775 3N 
RamseyNJ2014-04-17 00:52SafetyNet33  30.63     
Hamilton Twp. (Atlantic)NJ2014-04-17 00:59NJDOT292927 92 0N 
EatontownNJ2014-04-17 00:59NJDOT393916 39 1E 
ClaytonNJ2014-04-17 00:52SafetyNet33        
BivalveNJ2014-04-17 00:52SafetyNet37  30.54     
Old Bridge TownshipNJ2014-04-17 00:59NJDOT343424 66 0ENE 
KingwoodNJ2014-04-17 00:52SafetyNet28  30.60 0.00 NNE 
West Orange 1NJ2014-04-17 00:59NJDOT353515 43 1NE 
Download this data for Excel